,,,PA_Meas_PMT16A,,PR_Meas_QMR101_102,,RH_Meas_QMH101,,SR_Meas_QMS101,,TA_Meas_QMH101,,GenWind,,GenWind,
date,time,status,PA,status,PR,status,RH,status,SR,status,TA,status,DirAvg,status,SpdAvg,
2012-02-03, 00:00:05,VALID,1001.1,VALID,0,VALID,92.7533,VALID,0,VALID,23.5646,VALID,73,VALID,0.259766,
2012-02-03, 00:01:05,VALID,1001.12,VALID,0,VALID,92.8525,VALID,0,VALID,23.5451,VALID,73,VALID,0.629687,
2012-02-03, 00:02:05,VALID,1001.13,VALID,0,VALID,93.0051,VALID,0,VALID,23.5451,VALID,17,VALID,0.727734,
2012-02-03, 00:03:05,VALID,1001.12,VALID,0,VALID,93.1271,VALID,0,VALID,23.5238,VALID,17,VALID,0.563281,
2012-02-03, 00:04:05,VALID,1001.1,VALID,0,VALID,93.0508,VALID,0,VALID,23.4848,VALID,17,VALID,0.367578,
2012-02-03, 00:05:05,VALID,1001.11,VALID,0,VALID,93.089,VALID,0,VALID,23.5061,VALID,17,VALID,0.299609,
2012-02-03, 00:06:05,VALID,1001.1,VALID,0,VALID,93.089,VALID,0,VALID,23.4653,VALID,17,VALID,0.426172,
2012-02-03, 00:07:05,VALID,1001.1,VALID,0,VALID,93.1577,VALID,0,VALID,23.4866,VALID,17,VALID,0.465625,
2012-02-03, 00:08:05,VALID,1001.09,VALID,0,VALID,93.1653,VALID,0,VALID,23.4866,VALID,17,VALID,0.271875,
2012-02-03, 00:09:05,VALID,1001.1,VALID,0,VALID,93.1805,VALID,0,VALID,23.4671,VALID,17,VALID,0.172656,
2012-02-03, 00:10:05,VALID,1001.09,VALID,0,VALID,93.1271,VALID,0,VALID,23.4263,VALID,17,VALID,0.348047,
2012-02-03, 00:11:05,VALID,1001.07,VALID,0,VALID,93.1882,VALID,0,VALID,23.428,VALID,17,VALID,0.356641,
2012-02-03, 00:12:05,VALID,1001.07,VALID,0,VALID,93.2645,VALID,0,VALID,23.4263,VALID,17,VALID,0.292188,
2012-02-03, 00:13:05,VALID,1001.06,VALID,0,VALID,93.3255,VALID,0,VALID,23.4475,VALID,17,VALID,0.0890625,
2012-02-03, 00:14:05,VALID,1001.02,VALID,0,VALID,93.3179,VALID,0,VALID,23.4263,VALID,17,VALID,0,
2012-02-03, 00:15:05,VALID,1001.01,VALID,0,VALID,93.3484,VALID,0,VALID,23.4475,VALID,17,VALID,0,
2012-02-03, 00:16:05,VALID,1000.99,VALID,0,VALID,93.356,VALID,0,VALID,23.4475,VALID,17,VALID,0,
2012-02-03, 00:17:05,VALID,1000.98,VALID,0,VALID,93.3637,VALID,0,VALID,23.4475,VALID,17,VALID,0,
2012-02-03, 00:18:05,VALID,1001,VALID,0,VALID,93.3789,VALID,0,VALID,23.428,VALID,17,VALID,0,
2012-02-03, 00:19:05,VALID,1001,VALID,0,VALID,93.356,VALID,0,VALID,23.428,VALID,17,VALID,0,
2012-02-03, 00:20:05,VALID,1001.02,VALID,0,VALID,93.3713,VALID,0,VALID,23.428,VALID,17,VALID,0,
2012-02-03, 00:21:05,VALID,1001.05,VALID,0,VALID,93.3103,VALID,0,VALID,23.4085,VALID,17,VALID,0,
2012-02-03, 00:22:05,VALID,1001,VALID,0,VALID,93.2645,VALID,0,VALID,23.3695,VALID,17,VALID,0.4125,
2012-02-03, 00:23:05,VALID,1000.97,VALID,0,VALID,93.3713,VALID,0,VALID,23.3695,VALID,17,VALID,0.398828,
2012-02-03, 00:24:05,VALID,1000.99,VALID,0,VALID,93.44,VALID,0,VALID,23.3695,VALID,17,VALID,0.563281,
2012-02-03, 00:25:05,VALID,1001.01,VALID,0,VALID,93.5239,VALID,0,VALID,23.389,VALID,43,VALID,0.985937,
2012-02-03, 00:26:05,VALID,1000.99,VALID,0,VALID,93.501,VALID,0,VALID,23.389,VALID,53,VALID,1.38125,
2012-02-03, 00:27:05,VALID,1000.97,VALID,0,VALID,93.5315,VALID,0,VALID,23.4067,VALID,59,VALID,1.39688,
2012-02-03, 00:28:05,VALID,1000.99,VALID,0,VALID,93.5239,VALID,0,VALID,23.4067,VALID,60,VALID,1.29414,
2012-02-03, 00:29:05,VALID,1000.95,VALID,0,VALID,93.5391,VALID,0,VALID,23.4458,VALID,59,VALID,1.07227,
2012-02-03, 00:30:05,VALID,1000.91,VALID,0,VALID,93.5239,VALID,0,VALID,23.5061,VALID,59,VALID,1.02969,
2012-02-03, 00:31:05,VALID,1000.89,VALID,0,VALID,93.4857,VALID,0,VALID,23.5256,VALID,56,VALID,0.980859,
2012-02-03, 00:32:05,VALID,1000.87,VALID,0,VALID,93.44,VALID,0,VALID,23.5451,VALID,37,VALID,0.802344,
2012-02-03, 00:33:05,VALID,1000.86,VALID,0,VALID,93.3484,VALID,0,VALID,23.5433,VALID,37,VALID,0.609766,
2012-02-03, 00:34:05,VALID,1000.83,VALID,0,VALID,93.3255,VALID,0,VALID,23.5628,VALID,37,VALID,0.345703,
2012-02-03, 00:35:05,VALID,1000.82,VALID,0,VALID,93.3026,VALID,0,VALID,23.5628,VALID,37,VALID,0.422656,
2012-02-03, 00:36:05,VALID,1000.79,VALID,0,VALID,93.3026,VALID,0,VALID,23.5628,VALID,50,VALID,0.6875,
2012-02-03, 00:37:05,VALID,1000.79,VALID,0,VALID,93.2721,VALID,0,VALID,23.5841,VALID,86,VALID,0.943359,
2012-02-03, 00:38:05,VALID,1000.79,VALID,0,VALID,93.3103,VALID,0,VALID,23.5823,VALID,94,VALID,1.11836,
2012-02-03, 00:39:05,VALID,1000.77,VALID,0,VALID,93.3484,VALID,0,VALID,23.6427,VALID,104,VALID,1.15039,
2012-02-03, 00:40:05,VALID,1000.75,VALID,0,VALID,93.4094,VALID,0.104696,VALID,23.6409,VALID,107,VALID,0.985547,
2012-02-03, 00:41:05,VALID,1000.75,VALID,0.5,VALID,93.4323,VALID,0.104696,VALID,23.6604,VALID,112,VALID,0.944141,
2012-02-03, 00:42:05,VALID,1000.74,VALID,0,VALID,93.44,VALID,0,VALID,23.6604,VALID,112,VALID,0.85,
2012-02-03, 00:43:04,VALID,1000.75,VALID,0,VALID,93.4476,VALID,0,VALID,23.6604,VALID,112,VALID,0.743359,
2012-02-03, 00:44:04,VALID,1000.75,VALID,0,VALID,93.4781,VALID,0,VALID,23.6604,VALID,99,VALID,0.981641,
2012-02-03, 00:45:04,VALID,1000.75,VALID,0,VALID,93.4934,VALID,0.104696,VALID,23.6604,VALID,95,VALID,0.926953,
2012-02-03, 00:46:04,VALID,1000.74,VALID,0,VALID,93.5086,VALID,0,VALID,23.6604,VALID,95,VALID,0.916016,
2012-02-03, 00:47:04,VALID,1000.77,VALID,0,VALID,93.5315,VALID,0,VALID,23.6604,VALID,88,VALID,0.901563,
2012-02-03, 00:48:04,VALID,1000.79,VALID,0,VALID,93.5773,VALID,0,VALID,23.7012,VALID,78,VALID,1.12461,
2012-02-03, 00:49:04,VALID,1000.74,VALID,0,VALID,93.5926,VALID,0,VALID,23.7012,VALID,59,VALID,1.31133,
2012-02-03, 00:50:04,VALID,1000.71,VALID,0,VALID,93.5849,VALID,0.104696,VALID,23.6799,VALID,54,VALID,1.01406,
2012-02-03, 00:51:04,VALID,1000.66,VALID,0,VALID,93.6078,VALID,0,VALID,23.6994,VALID,48,VALID,0.626953,
2012-02-03, 00:52:04,VALID,1000.64,VALID,0,VALID,93.5926,VALID,0,VALID,23.7207,VALID,48,VALID,0.0785156,
2012-02-03, 00:53:04,VALID,1000.63,VALID,0,VALID,93.5773,VALID,0.104696,VALID,23.7207,VALID,48,VALID,0,
2012-02-03, 00:54:04,VALID,1000.57,VALID,0,VALID,93.5697,VALID,0,VALID,23.6799,VALID,48,VALID,0,
2012-02-03, 00:55:04,VALID,1000.54,VALID,0,VALID,93.5391,VALID,0,VALID,23.6994,VALID,48,VALID,0,
2012-02-03, 00:56:04,VALID,1000.51,VALID,0,VALID,93.5239,VALID,0,VALID,23.6799,VALID,48,VALID,0,
2012-02-03, 00:57:04,VALID,1000.52,VALID,0,VALID,93.5239,VALID,0,VALID,23.6799,VALID,48,VALID,0,
2012-02-03, 00:58:04,VALID,1000.5,VALID,0,VALID,93.501,VALID,0,VALID,23.7207,VALID,40,VALID,0.0136719,
2012-02-03, 00:59:04,VALID,1000.51,VALID,0,VALID,93.5086,VALID,0,VALID,23.7207,VALID,5,VALID,0.363281,
2012-02-03, 01:00:04,VALID,1000.5,VALID,0,VALID,93.5163,VALID,0,VALID,23.7207,VALID,5,VALID,0.00585938,
2012-02-03, 01:01:04,VALID,1000.53,VALID,0,VALID,93.4857,VALID,0,VALID,23.7189,VALID,5,VALID,0,
2012-02-03, 01:02:04,VALID,1000.53,VALID,0,VALID,93.4857,VALID,0,VALID,23.7402,VALID,5,VALID,0,
2012-02-03, 01:03:04,VALID,1000.5,VALID,0,VALID,93.4552,VALID,0,VALID,23.6994,VALID,5,VALID,0.450391,
2012-02-03, 01:04:04,VALID,1000.49,VALID,0,VALID,93.4628,VALID,0,VALID,23.7207,VALID,5,VALID,0.285937,
2012-02-03, 01:05:04,VALID,1000.49,VALID,0,VALID,93.4857,VALID,0,VALID,23.6799,VALID,5,VALID,0,
2012-02-03, 01:06:04,VALID,1000.44,VALID,0,VALID,93.4476,VALID,0,VALID,23.6817,VALID,5,VALID,0,
2012-02-03, 01:07:04,VALID,1000.47,VALID,0,VALID,93.4171,VALID,0.104696,VALID,23.6604,VALID,5,VALID,0,
2012-02-03, 01:08:04,VALID,1000.43,VALID,0,VALID,93.4094,VALID,0,VALID,23.6622,VALID,5,VALID,0.239844,
2012-02-03, 01:09:04,VALID,1000.42,VALID,0,VALID,93.4247,VALID,0,VALID,23.6427,VALID,5,VALID,0.177734,
2012-02-03, 01:10:04,VALID,1000.43,VALID,0,VALID,93.4476,VALID,0,VALID,23.6019,VALID,49,VALID,0.577734,
2012-02-03, 01:11:04,VALID,1000.43,VALID,0,VALID,93.5163,VALID,0,VALID,23.6214,VALID,106,VALID,0.657812,
2012-02-03, 01:12:04,VALID,1000.44,VALID,0,VALID,93.5163,VALID,0,VALID,23.6409,VALID,106,VALID,0.536719,
2012-02-03, 01:13:04,VALID,1000.38,VALID,0,VALID,93.5239,VALID,0,VALID,23.6214,VALID,145,VALID,0.644922,
2012-02-03, 01:14:04,VALID,1000.4,VALID,0,VALID,93.5391,VALID,0,VALID,23.6409,VALID,146,VALID,0.899219,
2012-02-03, 01:15:04,VALID,1000.36,VALID,0,VALID,93.5849,VALID,0,VALID,23.6817,VALID,151,VALID,0.882031,
2012-02-03, 01:16:04,VALID,1000.36,VALID,0,VALID,93.5849,VALID,0,VALID,23.6799,VALID,151,VALID,0.54375,
2012-02-03, 01:17:04,VALID,1000.39,VALID,0,VALID,93.5315,VALID,0,VALID,23.6799,VALID,151,VALID,0.582812,
2012-02-03, 01:18:04,VALID,1000.37,VALID,0,VALID,93.5391,VALID,0,VALID,23.7012,VALID,151,VALID,0.432031,
2012-02-03, 01:19:04,VALID,1000.38,VALID,0,VALID,93.5086,VALID,0,VALID,23.6799,VALID,151,VALID,0.315625,
2012-02-03, 01:20:04,VALID,1000.42,VALID,0,VALID,93.5086,VALID,0,VALID,23.6994,VALID,151,VALID,0.395703,
2012-02-03, 01:21:04,VALID,1000.39,VALID,0,VALID,93.501,VALID,0,VALID,23.6994,VALID,151,VALID,0.39375,
2012-02-03, 01:22:04,VALID,1000.36,VALID,0,VALID,93.5468,VALID,0,VALID,23.7402,VALID,151,VALID,0.728516,
2012-02-03, 01:23:04,VALID,1000.37,VALID,0,VALID,93.5697,VALID,0,VALID,23.7793,VALID,151,VALID,0.689453,
2012-02-03, 01:24:04,VALID,1000.38,VALID,0,VALID,93.5926,VALID,0,VALID,23.7775,VALID,151,VALID,0.63125,
2012-02-03, 01:25:04,VALID,1000.35,VALID,0,VALID,93.562,VALID,0,VALID,23.797,VALID,151,VALID,0.775,
2012-02-03, 01:26:04,VALID,1000.37,VALID,0,VALID,93.5697,VALID,0,VALID,23.797,VALID,151,VALID,0.734766,
2012-02-03, 01:27:04,VALID,1000.35,VALID,0,VALID,93.5697,VALID,0.104696,VALID,23.8183,VALID,134,VALID,0.878516,
2012-02-03, 01:28:04,VALID,1000.37,VALID,0,VALID,93.562,VALID,0,VALID,23.797,VALID,133,VALID,0.795703,
2012-02-03, 01:29:04,VALID,1000.36,VALID,0,VALID,93.5849,VALID,0,VALID,23.8378,VALID,133,VALID,0.810938,
2012-02-03, 01:30:04,VALID,1000.31,VALID,0,VALID,93.5544,VALID,0,VALID,23.8165,VALID,131,VALID,0.933594,
2012-02-03, 01:31:04,VALID,1000.3,VALID,0,VALID,93.5849,VALID,0,VALID,23.8183,VALID,131,VALID,0.876172,
2012-02-03, 01:32:04,VALID,1000.28,VALID,0,VALID,93.562,VALID,0,VALID,23.8183,VALID,131,VALID,0.90625,
2012-02-03, 01:33:04,VALID,1000.25,VALID,0,VALID,93.5544,VALID,0,VALID,23.7775,VALID,131,VALID,0.819531,
2012-02-03, 01:34:04,VALID,1000.27,VALID,0,VALID,93.5697,VALID,0,VALID,23.7775,VALID,131,VALID,0.751953,
2012-02-03, 01:35:04,VALID,1000.24,VALID,0,VALID,93.5773,VALID,0.104696,VALID,23.7579,VALID,141,VALID,0.820703,
2012-02-03, 01:36:04,VALID,1000.24,VALID,0,VALID,93.6002,VALID,0,VALID,23.7793,VALID,141,VALID,0.557422,
2012-02-03, 01:37:04,VALID,1000.24,VALID,0,VALID,93.5849,VALID,0,VALID,23.7579,VALID,141,VALID,0.403125,
2012-02-03, 01:38:04,VALID,1000.27,VALID,0,VALID,93.5926,VALID,0,VALID,23.7384,VALID,141,VALID,0.359375,
2012-02-03, 01:39:04,VALID,1000.25,VALID,0,VALID,93.6002,VALID,0,VALID,23.7384,VALID,141,VALID,0.41875,
2012-02-03, 01:40:04,VALID,1000.24,VALID,0,VALID,93.5773,VALID,0,VALID,23.7189,VALID,141,VALID,0.236719,
2012-02-03, 01:41:04,VALID,1000.24,VALID,0,VALID,93.5773,VALID,0,VALID,23.6799,VALID,141,VALID,0.390625,
2012-02-03, 01:42:04,VALID,1000.22,VALID,0,VALID,93.6078,VALID,0,VALID,23.6799,VALID,141,VALID,0.369922,
2012-02-03, 01:43:04,VALID,1000.2,VALID,0,VALID,93.5926,VALID,0,VALID,23.6799,VALID,141,VALID,0.159766,
2012-02-03, 01:44:04,VALID,1000.21,VALID,0,VALID,93.5849,VALID,0,VALID,23.6409,VALID,141,VALID,0.252734,
2012-02-03, 01:45:04,VALID,1000.19,VALID,0,VALID,93.5773,VALID,0,VALID,23.6622,VALID,141,VALID,0.0925781,
2012-02-03, 01:46:04,VALID,1000.23,VALID,0,VALID,93.5773,VALID,0,VALID,23.6214,VALID,141,VALID,0,
2012-02-03, 01:47:04,VALID,1000.19,VALID,0,VALID,93.5773,VALID,0,VALID,23.6214,VALID,141,VALID,0,
2012-02-03, 01:48:04,VALID,1000.23,VALID,0,VALID,93.6307,VALID,0,VALID,23.6232,VALID,141,VALID,0,
2012-02-03, 01:49:04,VALID,1000.21,VALID,0,VALID,93.6536,VALID,0,VALID,23.6019,VALID,141,VALID,0,
2012-02-03, 01:50:04,VALID,1000.2,VALID,0,VALID,93.6612,VALID,0,VALID,23.6019,VALID,141,VALID,0,
2012-02-03, 01:51:04,VALID,1000.16,VALID,0,VALID,93.6688,VALID,0,VALID,23.6036,VALID,141,VALID,0,
2012-02-03, 01:52:04,VALID,1000.12,VALID,0,VALID,93.6765,VALID,0,VALID,23.5823,VALID,141,VALID,0,
2012-02-03, 01:53:04,VALID,1000.11,VALID,0,VALID,93.6994,VALID,0,VALID,23.6036,VALID,141,VALID,0,
2012-02-03, 01:54:04,VALID,1000.1,VALID,0,VALID,93.6994,VALID,0,VALID,23.5841,VALID,141,VALID,0,
2012-02-03, 01:55:04,VALID,1000.09,VALID,0,VALID,93.6841,VALID,0,VALID,23.5628,VALID,141,VALID,0,
2012-02-03, 01:56:04,VALID,1000.07,VALID,0,VALID,93.6841,VALID,0,VALID,23.5433,VALID,141,VALID,0,
2012-02-03, 01:57:04,VALID,1000.08,VALID,0,VALID,93.7146,VALID,0,VALID,23.5433,VALID,141,VALID,0,
2012-02-03, 01:58:04,VALID,1000.09,VALID,0,VALID,93.7528,VALID,0,VALID,23.5433,VALID,141,VALID,0,
2012-02-03, 01:59:04,VALID,1000.09,VALID,0,VALID,93.7909,VALID,0,VALID,23.5433,VALID,132,VALID,0.444922,
2012-02-03, 02:00:04,VALID,1000.13,VALID,0,VALID,93.8214,VALID,0,VALID,23.5433,VALID,128,VALID,0.64375,
2012-02-03, 02:01:04,VALID,1000.11,VALID,0,VALID,93.8672,VALID,0,VALID,23.5433,VALID,128,VALID,0.584375,
2012-02-03, 02:02:04,VALID,1000.15,VALID,0,VALID,93.8825,VALID,0,VALID,23.5646,VALID,129,VALID,0.530859,
2012-02-03, 02:03:04,VALID,1000.15,VALID,0,VALID,93.8977,VALID,0,VALID,23.5433,VALID,129,VALID,0.125391,
2012-02-03, 02:04:04,VALID,1000.15,VALID,0,VALID,93.8443,VALID,0,VALID,23.5646,VALID,129,VALID,0.0515625,
2012-02-03, 02:05:04,VALID,1000.14,VALID,0,VALID,93.7985,VALID,0,VALID,23.5061,VALID,129,VALID,0,
2012-02-03, 02:06:04,VALID,1000.14,VALID,0,VALID,93.7451,VALID,0,VALID,23.4671,VALID,129,VALID,0,
2012-02-03, 02:07:04,VALID,1000.16,VALID,0,VALID,93.7223,VALID,0,VALID,23.4067,VALID,129,VALID,0,
2012-02-03, 02:08:04,VALID,1000.13,VALID,0,VALID,93.7146,VALID,0,VALID,23.4085,VALID,129,VALID,0,
2012-02-03, 02:09:04,VALID,1000.1,VALID,0,VALID,93.7223,VALID,0,VALID,23.3677,VALID,129,VALID,0,
2012-02-03, 02:10:04,VALID,1000.09,VALID,0,VALID,93.7223,VALID,0,VALID,23.3677,VALID,129,VALID,0,
2012-02-03, 02:11:04,VALID,1000.08,VALID,0,VALID,93.7451,VALID,0,VALID,23.3482,VALID,129,VALID,0,
2012-02-03, 02:12:04,VALID,1000.08,VALID,0,VALID,93.7909,VALID,0,VALID,23.3482,VALID,129,VALID,0,
2012-02-03, 02:13:04,VALID,1000.08,VALID,0,VALID,93.8214,VALID,0,VALID,23.3695,VALID,129,VALID,0,
2012-02-03, 02:14:04,VALID,1000.12,VALID,0,VALID,93.8977,VALID,0,VALID,23.3482,VALID,129,VALID,0.379687,
2012-02-03, 02:15:04,VALID,1000.1,VALID,0,VALID,93.9359,VALID,0,VALID,23.389,VALID,129,VALID,0.282813,
2012-02-03, 02:16:04,VALID,1000.1,VALID,0,VALID,93.9588,VALID,0,VALID,23.3677,VALID,129,VALID,0.0304688,
2012-02-03, 02:17:04,VALID,1000.09,VALID,0,VALID,93.9893,VALID,0,VALID,23.3872,VALID,129,VALID,0.223438,
2012-02-03, 02:18:04,VALID,1000.07,VALID,0,VALID,93.9969,VALID,0,VALID,23.4085,VALID,129,VALID,0.205859,
2012-02-03, 02:19:04,VALID,1000.09,VALID,0,VALID,93.9893,VALID,0.104696,VALID,23.389,VALID,129,VALID,0.294922,
2012-02-03, 02:20:04,VALID,1000.1,VALID,0,VALID,94.0045,VALID,0,VALID,23.389,VALID,129,VALID,0.197656,
2012-02-03, 02:21:04,VALID,1000.12,VALID,0,VALID,94.0198,VALID,0.104696,VALID,23.3677,VALID,129,VALID,0,
2012-02-03, 02:22:04,VALID,1000.13,VALID,0,VALID,94.0274,VALID,0,VALID,23.3482,VALID,129,VALID,0,
2012-02-03, 02:23:04,VALID,1000.11,VALID,0,VALID,94.0122,VALID,0,VALID,23.3482,VALID,129,VALID,0,
2012-02-03, 02:24:04,VALID,1000.09,VALID,0,VALID,93.9969,VALID,0,VALID,23.3305,VALID,129,VALID,0,
2012-02-03, 02:25:04,VALID,1000.04,VALID,0,VALID,93.974,VALID,0,VALID,23.2897,VALID,129,VALID,0,
2012-02-03, 02:26:04,VALID,1000.01,VALID,0,VALID,93.9435,VALID,0,VALID,23.2312,VALID,129,VALID,0,
2012-02-03, 02:27:04,VALID,999.984,VALID,0,VALID,93.9588,VALID,0,VALID,23.2329,VALID,129,VALID,0.3875,
2012-02-03, 02:28:04,VALID,999.963,VALID,0,VALID,94.0885,VALID,0,VALID,23.2915,VALID,148,VALID,0.878516,
2012-02-03, 02:29:04,VALID,999.976,VALID,0,VALID,94.1571,VALID,0,VALID,23.3287,VALID,148,VALID,0.744922,
2012-02-03, 02:30:04,VALID,999.965,VALID,0,VALID,94.2105,VALID,0,VALID,23.3695,VALID,148,VALID,0.747266,
2012-02-03, 02:31:04,VALID,999.96,VALID,0,VALID,94.1953,VALID,0.104696,VALID,23.3677,VALID,158,VALID,0.935156,
2012-02-03, 02:32:04,VALID,999.945,VALID,0,VALID,94.2334,VALID,0,VALID,23.4067,VALID,158,VALID,0.741797,
2012-02-03, 02:33:04,VALID,999.947,VALID,0,VALID,94.2487,VALID,0,VALID,23.4458,VALID,158,VALID,0.776172,
2012-02-03, 02:34:04,VALID,999.974,VALID,0,VALID,94.2487,VALID,0,VALID,23.4671,VALID,158,VALID,0.489844,
2012-02-03, 02:35:04,VALID,999.964,VALID,0,VALID,94.2487,VALID,0,VALID,23.4671,VALID,158,VALID,0.561719,
2012-02-03, 02:36:04,VALID,999.995,VALID,0,VALID,94.2182,VALID,0,VALID,23.4671,VALID,111,VALID,0.720312,
2012-02-03, 02:37:04,VALID,1000.02,VALID,0,VALID,94.2105,VALID,0,VALID,23.4884,VALID,103,VALID,0.649219,
2012-02-03, 02:38:04,VALID,999.98,VALID,0,VALID,94.1571,VALID,0,VALID,23.4475,VALID,103,VALID,0.522266,
2012-02-03, 02:39:04,VALID,999.976,VALID,0,VALID,94.1266,VALID,0,VALID,23.428,VALID,103,VALID,0.417188,
2012-02-03, 02:40:04,VALID,999.964,VALID,0,VALID,94.058,VALID,0,VALID,23.4103,VALID,103,VALID,0.309766,
2012-02-03, 02:41:04,VALID,999.98,VALID,0,VALID,93.9511,VALID,0,VALID,23.311,VALID,103,VALID,0.385156,
2012-02-03, 02:42:04,VALID,999.977,VALID,0,VALID,93.913,VALID,0,VALID,23.2932,VALID,103,VALID,0.4375,
2012-02-03, 02:43:04,VALID,1000,VALID,0,VALID,93.9206,VALID,0,VALID,23.2524,VALID,103,VALID,0.362109,
2012-02-03, 02:44:04,VALID,999.995,VALID,0,VALID,93.9435,VALID,0,VALID,23.2542,VALID,103,VALID,0.653125,
2012-02-03, 02:45:04,VALID,999.983,VALID,0,VALID,94.0122,VALID,0,VALID,23.2152,VALID,35,VALID,0.830859,
2012-02-03, 02:46:04,VALID,999.985,VALID,0,VALID,94.0351,VALID,0,VALID,23.1939,VALID,35,VALID,0.803906,
2012-02-03, 02:47:04,VALID,999.999,VALID,0,VALID,94.0961,VALID,0,VALID,23.1744,VALID,35,VALID,0.801562,
2012-02-03, 02:48:04,VALID,999.966,VALID,0,VALID,94.1495,VALID,0,VALID,23.1744,VALID,35,VALID,0.655859,
2012-02-03, 02:49:04,VALID,999.972,VALID,0,VALID,94.1953,VALID,0,VALID,23.2117,VALID,35,VALID,0.703906,
2012-02-03, 02:50:04,VALID,999.937,VALID,0,VALID,94.2868,VALID,0,VALID,23.2117,VALID,25,VALID,0.751953,
2012-02-03, 02:51:04,VALID,999.927,VALID,0,VALID,94.3021,VALID,0,VALID,23.2312,VALID,25,VALID,0.478516,
2012-02-03, 02:52:04,VALID,999.92,VALID,0,VALID,94.325,VALID,0,VALID,23.2524,VALID,15,VALID,0.51875,
2012-02-03, 02:53:04,VALID,999.875,VALID,0,VALID,94.3174,VALID,0,VALID,23.2312,VALID,15,VALID,0.310937,
2012-02-03, 02:54:04,VALID,999.863,VALID,0,VALID,94.3326,VALID,0,VALID,23.1921,VALID,15,VALID,0.205469,
2012-02-03, 02:55:04,VALID,999.877,VALID,0,VALID,94.3326,VALID,0.104696,VALID,23.1921,VALID,15,VALID,0.1875,
2012-02-03, 02:56:04,VALID,999.869,VALID,0,VALID,94.3784,VALID,0,VALID,23.2117,VALID,15,VALID,0.321094,
2012-02-03, 02:57:04,VALID,999.921,VALID,0,VALID,94.3937,VALID,0,VALID,23.2117,VALID,15,VALID,0.377734,
2012-02-03, 02:58:04,VALID,999.944,VALID,0,VALID,94.386,VALID,0,VALID,23.2312,VALID,15,VALID,0.397266,
2012-02-03, 02:59:04,VALID,999.957,VALID,0,VALID,94.4089,VALID,0,VALID,23.2329,VALID,15,VALID,0.425391,
2012-02-03, 03:00:04,VALID,999.95,VALID,0,VALID,94.4089,VALID,0,VALID,23.2117,VALID,15,VALID,0.3375,
2012-02-03, 03:01:04,VALID,999.95,VALID,0,VALID,94.4089,VALID,0,VALID,23.2312,VALID,15,VALID,0.396875,
2012-02-03, 03:02:04,VALID,999.941,VALID,0,VALID,94.4318,VALID,0,VALID,23.2312,VALID,15,VALID,0.603906,
2012-02-03, 03:03:04,VALID,999.91,VALID,0,VALID,94.47,VALID,0,VALID,23.2312,VALID,19,VALID,0.676172,
2012-02-03, 03:04:04,VALID,999.914,VALID,0,VALID,94.4471,VALID,0,VALID,23.2507,VALID,43,VALID,1.15,
2012-02-03, 03:05:04,VALID,999.904,VALID,0,VALID,94.4623,VALID,0,VALID,23.2507,VALID,54,VALID,1.17539,
2012-02-03, 03:06:04,VALID,999.917,VALID,0,VALID,94.4471,VALID,0,VALID,23.2117,VALID,54,VALID,1.00898,
2012-02-03, 03:07:04,VALID,999.889,VALID,0,VALID,94.4547,VALID,0,VALID,23.2117,VALID,54,VALID,0.7625,
2012-02-03, 03:08:04,VALID,999.888,VALID,0,VALID,94.4471,VALID,0,VALID,23.1921,VALID,54,VALID,0.368359,
2012-02-03, 03:09:04,VALID,999.868,VALID,0,VALID,94.4318,VALID,0,VALID,23.1726,VALID,54,VALID,0,
2012-02-03, 03:10:04,VALID,999.884,VALID,0,VALID,94.4089,VALID,0,VALID,23.1336,VALID,54,VALID,0.259766,
2012-02-03, 03:11:04,VALID,999.902,VALID,0,VALID,94.4089,VALID,0,VALID,23.1531,VALID,54,VALID,0,
2012-02-03, 03:12:04,VALID,999.905,VALID,0,VALID,94.4242,VALID,0,VALID,23.1336,VALID,54,VALID,0,
2012-02-03, 03:13:04,VALID,999.895,VALID,0,VALID,94.4089,VALID,0,VALID,23.1141,VALID,54,VALID,0,
2012-02-03, 03:14:04,VALID,999.876,VALID,0,VALID,94.4165,VALID,0,VALID,23.1141,VALID,54,VALID,0.00585938,
2012-02-03, 03:15:04,VALID,999.873,VALID,0,VALID,94.4242,VALID,0,VALID,23.1141,VALID,54,VALID,0.646484,
2012-02-03, 03:16:04,VALID,999.855,VALID,0,VALID,94.4623,VALID,0,VALID,23.1141,VALID,54,VALID,0.732422,
2012-02-03, 03:17:04,VALID,999.862,VALID,0,VALID,94.4623,VALID,0.104696,VALID,23.1531,VALID,54,VALID,0.800391,
2012-02-03, 03:18:04,VALID,999.853,VALID,0,VALID,94.4852,VALID,0,VALID,23.1744,VALID,54,VALID,0.697266,
2012-02-03, 03:19:04,VALID,999.847,VALID,0,VALID,94.5005,VALID,0,VALID,23.1726,VALID,54,VALID,0.530469,
2012-02-03, 03:20:04,VALID,999.841,VALID,0,VALID,94.4852,VALID,0,VALID,23.1336,VALID,54,VALID,0.443359,
2012-02-03, 03:21:04,VALID,999.837,VALID,0,VALID,94.4623,VALID,0,VALID,23.1141,VALID,54,VALID,0.419141,
2012-02-03, 03:22:04,VALID,999.856,VALID,0,VALID,94.4394,VALID,0,VALID,23.0751,VALID,54,VALID,0.393359,
2012-02-03, 03:23:04,VALID,999.897,VALID,0,VALID,94.4318,VALID,0,VALID,23.0361,VALID,54,VALID,0.398828,
2012-02-03, 03:24:04,VALID,999.923,VALID,0,VALID,94.4013,VALID,0,VALID,22.9971,VALID,54,VALID,0.347266,
2012-02-03, 03:25:04,VALID,999.899,VALID,0,VALID,94.4089,VALID,0,VALID,22.9793,VALID,54,VALID,0.667969,
2012-02-03, 03:26:04,VALID,999.92,VALID,0,VALID,94.4165,VALID,0,VALID,22.9581,VALID,54,VALID,1,
2012-02-03, 03:27:04,VALID,999.924,VALID,0,VALID,94.4547,VALID,0,VALID,22.9776,VALID,56,VALID,1.2418,
2012-02-03, 03:28:04,VALID,999.938,VALID,0,VALID,94.5234,VALID,0,VALID,23.0166,VALID,56,VALID,1.14961,
2012-02-03, 03:29:04,VALID,999.938,VALID,0,VALID,94.5157,VALID,0,VALID,23.0183,VALID,56,VALID,1.0793,
2012-02-03, 03:30:04,VALID,999.898,VALID,0,VALID,94.4928,VALID,0,VALID,22.9988,VALID,56,VALID,0.791406,
2012-02-03, 03:31:04,VALID,999.895,VALID,0,VALID,94.531,VALID,0.104696,VALID,22.9581,VALID,56,VALID,0.902734,
2012-02-03, 03:32:04,VALID,999.891,VALID,0,VALID,94.5157,VALID,0,VALID,22.9385,VALID,56,VALID,0.776563,
2012-02-03, 03:33:04,VALID,999.899,VALID,0,VALID,94.5539,VALID,0,VALID,22.9581,VALID,56,VALID,0.732813,
2012-02-03, 03:34:04,VALID,999.88,VALID,0,VALID,94.5462,VALID,0,VALID,22.9385,VALID,56,VALID,0.682031,
2012-02-03, 03:35:04,VALID,999.937,VALID,0,VALID,94.5539,VALID,0,VALID,22.919,VALID,56,VALID,0.761328,
2012-02-03, 03:36:04,VALID,999.935,VALID,0,VALID,94.5539,VALID,0,VALID,22.8995,VALID,48,VALID,0.931641,
2012-02-03, 03:37:04,VALID,999.935,VALID,0,VALID,94.531,VALID,0,VALID,22.8605,VALID,48,VALID,0.516797,
2012-02-03, 03:38:04,VALID,999.884,VALID,0,VALID,94.5615,VALID,0,VALID,22.8215,VALID,48,VALID,0.267188,
2012-02-03, 03:39:04,VALID,999.841,VALID,0,VALID,94.531,VALID,0,VALID,22.8215,VALID,48,VALID,0.374219,
2012-02-03, 03:40:04,VALID,999.849,VALID,0,VALID,94.5539,VALID,0,VALID,22.802,VALID,56,VALID,0.518359,
2012-02-03, 03:41:04,VALID,999.848,VALID,0,VALID,94.5462,VALID,0,VALID,22.802,VALID,56,VALID,0.483203,
2012-02-03, 03:42:04,VALID,999.875,VALID,0,VALID,94.5539,VALID,0,VALID,22.802,VALID,56,VALID,0.369922,
2012-02-03, 03:43:04,VALID,999.86,VALID,0,VALID,94.5997,VALID,0,VALID,22.841,VALID,56,VALID,0.3875,
2012-02-03, 03:44:04,VALID,999.869,VALID,0,VALID,94.5997,VALID,0,VALID,22.919,VALID,56,VALID,0.432813,
2012-02-03, 03:45:04,VALID,999.892,VALID,0,VALID,94.6454,VALID,0,VALID,22.9581,VALID,56,VALID,0.192969,
2012-02-03, 03:46:04,VALID,999.928,VALID,0,VALID,94.6531,VALID,0,VALID,22.9581,VALID,56,VALID,0.0894531,
2012-02-03, 03:47:04,VALID,999.962,VALID,0,VALID,94.6683,VALID,0,VALID,22.9776,VALID,56,VALID,0.101172,
2012-02-03, 03:48:04,VALID,1000.02,VALID,0,VALID,94.6531,VALID,0,VALID,23.0183,VALID,56,VALID,0.003125,